Time,TemperatureF,DewpointF,PressureIn,WindDirection,WindDirectionDegrees,WindSpeedMPH,WindSpeedGustMPH,Humidity,HourlyPrecipIn,Conditions,Clouds,dailyrainin,SoftwareType,DateUTC
2013-05-05 00:03:00,47.0,39.0,-100.00,East,87,12.0,-999.0,73,0.00,,,0.00,,2013-05-05 04:03:00,
2013-05-05 00:12:00,47.0,39.0,-100.00,East,87,12.0,-999.0,73,0.00,,,0.00,,2013-05-05 04:12:00,
2013-05-05 00:53:00,47.0,38.0,-100.00,East,80,13.0,-999.0,71,0.00,,,0.00,,2013-05-05 04:53:00,
2013-05-05 01:02:00,47.0,38.0,-100.00,East,80,13.0,-999.0,71,0.00,,,0.00,,2013-05-05 05:02:00,
2013-05-05 01:12:00,47.0,38.0,-100.00,East,80,13.0,-999.0,71,0.00,,,0.00,,2013-05-05 05:12:00,
2013-05-05 01:52:00,47.0,38.0,-100.00,East,85,12.0,-999.0,72,0.00,,,0.00,,2013-05-05 05:52:00,
2013-05-05 02:02:00,47.0,38.0,-100.00,East,85,12.0,-999.0,72,0.00,,,0.00,,2013-05-05 06:02:00,
2013-05-05 02:12:00,47.0,38.0,-100.00,East,85,12.0,-999.0,72,0.00,,,0.00,,2013-05-05 06:12:00,
2013-05-05 02:52:00,48.0,40.0,-100.00,ENE,74,10.0,-999.0,73,0.00,,,0.00,,2013-05-05 06:52:00,
2013-05-05 03:01:00,48.0,40.0,-100.00,ENE,74,10.0,-999.0,73,0.00,,,0.00,,2013-05-05 07:01:00,
2013-05-05 03:11:00,48.0,40.0,-100.00,ENE,74,10.0,-999.0,73,0.00,,,0.00,,2013-05-05 07:11:00,
2013-05-05 03:52:00,48.0,39.0,-100.00,ENE,69,11.0,-999.0,71,0.00,,,0.00,,2013-05-05 07:52:00,
2013-05-05 04:02:00,48.0,39.0,-100.00,ENE,69,11.0,-999.0,71,0.00,,,0.00,,2013-05-05 08:02:00,
2013-05-05 04:11:00,48.0,39.0,-100.00,ENE,69,11.0,-999.0,71,0.00,,,0.00,,2013-05-05 08:11:00,
2013-05-05 04:53:00,48.0,38.0,-100.00,East,79,13.0,-999.0,68,0.00,,,0.00,,2013-05-05 08:53:00,
2013-05-05 05:01:00,48.0,38.0,-100.00,East,79,13.0,-999.0,68,0.00,,,0.00,,2013-05-05 09:01:00,
2013-05-05 05:11:00,48.0,38.0,-100.00,East,79,13.0,-999.0,68,0.00,,,0.00,,2013-05-05 09:11:00,
2013-05-05 05:52:00,48.0,39.0,-100.00,ENE,77,11.0,-999.0,70,0.00,,,0.00,,2013-05-05 09:52:00,
2013-05-05 06:03:00,48.0,39.0,-100.00,ENE,77,11.0,-999.0,70,0.00,,,0.00,,2013-05-05 10:03:00,
2013-05-05 06:12:00,48.0,39.0,-100.00,ENE,77,11.0,-999.0,70,0.00,,,0.00,,2013-05-05 10:12:00,
2013-05-05 06:53:00,47.0,37.0,-100.00,ENE,67,11.0,-999.0,69,0.00,,,0.00,,2013-05-05 10:53:00,
2013-05-05 07:02:00,47.0,37.0,-100.00,ENE,67,11.0,-999.0,69,0.00,,,0.00,,2013-05-05 11:02:00,
2013-05-05 07:12:00,47.0,37.0,-100.00,ENE,67,11.0,-999.0,69,0.00,,,0.00,,2013-05-05 11:12:00,
2013-05-05 07:52:00,47.0,38.0,-100.00,ENE,73,15.0,-999.0,70,0.00,,,0.00,,2013-05-05 11:52:00,
2013-05-05 08:02:00,47.0,38.0,-100.00,ENE,73,15.0,-999.0,70,0.00,,,0.00,,2013-05-05 12:02:00,
2013-05-05 08:11:00,47.0,38.0,-100.00,ENE,73,15.0,-999.0,70,0.00,,,0.00,,2013-05-05 12:11:00,
2013-05-05 08:52:00,48.0,39.0,-100.00,ENE,78,13.0,-999.0,71,0.00,,,0.00,,2013-05-05 12:52:00,
2013-05-05 09:01:00,48.0,39.0,-100.00,ENE,78,13.0,-999.0,71,0.00,,,0.00,,2013-05-05 13:01:00,
2013-05-05 09:11:00,48.0,39.0,-100.00,ENE,78,13.0,-999.0,71,0.00,,,0.00,,2013-05-05 13:11:00,
2013-05-05 09:52:00,47.0,37.0,-100.00,East,83,13.0,-999.0,69,0.00,,,0.00,,2013-05-05 13:52:00,
2013-05-05 10:02:00,47.0,37.0,-100.00,East,83,13.0,-999.0,69,0.00,,,0.00,,2013-05-05 14:02:00,
2013-05-05 10:11:00,47.0,37.0,-100.00,East,83,13.0,-999.0,69,0.00,,,0.00,,2013-05-05 14:11:00,
2013-05-05 11:53:00,50.0,39.0,-100.00,ENE,57,13.0,-999.0,65,0.00,,,0.00,,2013-05-05 15:53:00,
2013-05-05 12:03:00,50.0,39.0,-100.00,ENE,57,13.0,-999.0,65,0.00,,,0.00,,2013-05-05 16:03:00,
2013-05-05 12:12:00,50.0,39.0,-100.00,ENE,57,13.0,-999.0,65,0.00,,,0.00,,2013-05-05 16:12:00,
2013-05-05 12:53:00,52.0,41.0,-100.00,NE,52,13.0,-999.0,67,0.00,,,0.00,,2013-05-05 16:53:00,
2013-05-05 13:02:00,52.0,41.0,-100.00,NE,52,13.0,-999.0,67,0.00,,,0.00,,2013-05-05 17:02:00,
2013-05-05 13:12:00,52.0,41.0,-100.00,NE,52,13.0,-999.0,67,0.00,,,0.00,,2013-05-05 17:12:00,
2013-05-05 13:52:00,52.0,41.0,-100.00,ENE,58,13.0,-999.0,66,0.00,,,0.00,,2013-05-05 17:52:00,
2013-05-05 14:01:00,52.0,41.0,-100.00,ENE,58,13.0,-999.0,66,0.00,,,0.00,,2013-05-05 18:01:00,
2013-05-05 14:12:00,52.0,41.0,-100.00,ENE,58,13.0,-999.0,66,0.00,,,0.00,,2013-05-05 18:12:00,
2013-05-05 14:52:00,51.0,40.0,-100.00,ENE,61,12.0,-999.0,65,0.00,,,0.00,,2013-05-05 18:52:00,
2013-05-05 15:01:00,51.0,40.0,-100.00,ENE,61,12.0,-999.0,65,0.00,,,0.00,,2013-05-05 19:01:00,
2013-05-05 15:12:00,51.0,40.0,-100.00,ENE,61,12.0,-999.0,65,0.00,,,0.00,,2013-05-05 19:12:00,
2013-05-05 15:52:00,50.0,40.0,-100.00,ENE,73,13.0,-999.0,69,0.00,,,0.00,,2013-05-05 19:52:00,
2013-05-05 16:02:00,50.0,40.0,-100.00,ENE,73,13.0,-999.0,69,0.00,,,0.00,,2013-05-05 20:02:00,
2013-05-05 16:11:00,50.0,40.0,-100.00,ENE,73,13.0,-999.0,69,0.00,,,0.00,,2013-05-05 20:11:00,
2013-05-05 16:52:00,51.0,41.0,-100.00,ENE,76,13.0,-999.0,68,0.00,,,0.00,,2013-05-05 20:52:00,
2013-05-05 17:02:00,51.0,41.0,-100.00,ENE,76,13.0,-999.0,68,0.00,,,0.00,,2013-05-05 21:02:00,
2013-05-05 17:11:00,51.0,41.0,-100.00,ENE,76,13.0,-999.0,68,0.00,,,0.00,,2013-05-05 21:11:00,
2013-05-05 17:53:00,50.0,40.0,-100.00,ENE,68,12.0,-999.0,68,0.00,,,0.00,,2013-05-05 21:53:00,
2013-05-05 18:03:00,50.0,40.0,-100.00,ENE,68,12.0,-999.0,68,0.00,,,0.00,,2013-05-05 22:03:00,
2013-05-05 18:12:00,50.0,40.0,-100.00,ENE,68,12.0,-999.0,68,0.00,,,0.00,,2013-05-05 22:12:00,
2013-05-05 18:52:00,50.0,41.0,-100.00,ENE,59,10.0,-999.0,72,0.00,,,0.00,,2013-05-05 22:52:00,
2013-05-05 19:02:00,50.0,41.0,-100.00,ENE,59,10.0,-999.0,72,0.00,,,0.00,,2013-05-05 23:02:00,
2013-05-05 19:12:00,50.0,41.0,-100.00,ENE,59,10.0,-999.0,72,0.00,,,0.00,,2013-05-05 23:12:00,
2013-05-05 20:52:00,48.0,41.0,-100.00,ENE,75,10.0,-999.0,78,0.00,,,0.00,,2013-05-06 00:52:00,
2013-05-05 21:01:00,48.0,41.0,-100.00,ENE,75,10.0,-999.0,78,0.00,,,0.00,,2013-05-06 01:01:00,
2013-05-05 21:11:00,48.0,41.0,-100.00,ENE,75,10.0,-999.0,78,0.00,,,0.00,,2013-05-06 01:11:00,
2013-05-05 21:52:00,48.0,43.0,-100.00,ENE,76,8.0,-999.0,82,0.00,,,0.00,,2013-05-06 01:52:00,
2013-05-05 22:02:00,48.0,43.0,-100.00,ENE,76,8.0,-999.0,82,0.00,,,0.00,,2013-05-06 02:02:00,
2013-05-05 22:12:00,48.0,43.0,-100.00,ENE,76,8.0,-999.0,82,0.00,,,0.00,,2013-05-06 02:12:00,
2013-05-05 22:52:00,48.0,43.0,-100.00,ENE,69,9.0,-999.0,84,0.00,,,0.00,,2013-05-06 02:52:00,
2013-05-05 23:02:00,48.0,43.0,-100.00,ENE,69,9.0,-999.0,84,0.00,,,0.00,,2013-05-06 03:02:00,
2013-05-05 23:11:00,48.0,43.0,-100.00,ENE,69,9.0,-999.0,84,0.00,,,0.00,,2013-05-06 03:11:00,
2013-05-05 23:53:00,50.0,48.0,-100.00,ENE,74,8.0,-999.0,93,0.00,,,0.00,,2013-05-06 03:53:00,